GFSCGP_250_spd_258.txt.gz
Wind_Speed
63 63 61 56 53 52 53 52 50 47 44 37 31 30 22 14 12 14 14 17 20 20 22 22 24 29 31 29 23 22 21 17 17 18 22 21 20 17 16 15 13 15 18 16
69 69 66 64 61 58 57 59 58 53 50 46 41 37 36 30 29 30 30 26 25 24 21 25 32 34 32 28 22 20 17 16 13 15 17 20 17 16 14 14 13 14 14 14
74 74 72 69 68 66 64 61 61 60 58 56 50 45 43 41 39 37 34 34 34 33 33 29 32 35 30 28 24 18 18 14 11 10 12 14 15 14 13 11 11 11 12 11
75 77 78 77 74 72 72 68 67 66 64 61 55 54 52 48 46 44 42 39 38 37 35 34 34 33 29 27 27 18 16 14 12 6 6 7 9 11 11 9 9 10 9 7
79 78 77 80 81 80 79 76 74 73 72 69 65 60 59 53 52 51 49 46 46 42 39 38 37 35 31 27 25 17 16 14 13 9 6 4 3 4 6 8 7 7 8 6
84 83 83 83 83 83 84 85 83 82 78 72 73 66 66 62 61 57 55 56 53 47 47 43 40 38 32 27 24 18 15 16 15 12 9 8 4 3 1 1 2 5 5 6
79 82 84 86 86 86 86 86 88 87 84 79 78 71 69 71 70 65 61 59 58 55 54 50 45 38 33 29 24 23 17 17 18 17 13 12 12 9 8 6 4 2 1 1
79 80 81 82 86 88 88 87 92 91 87 83 83 77 74 77 77 76 70 66 64 62 58 55 46 39 33 29 27 26 24 21 20 20 18 16 16 15 14 11 11 8 6 4
77 80 80 81 83 83 85 83 86 89 89 87 84 81 79 80 82 82 76 71 67 63 58 55 48 43 40 33 30 30 30 28 25 24 24 20 19 21 22 20 18 15 14 11
79 80 82 83 83 81 82 83 82 83 83 83 82 82 82 88 86 81 79 75 71 68 64 59 55 51 47 43 38 33 35 33 30 29 30 26 22 23 24 22 23 20 20 20
78 78 82 86 83 84 83 84 85 87 84 82 79 74 79 85 88 85 83 82 75 72 70 67 63 58 54 50 45 39 37 38 36 36 33 31 28 24 25 24 23 24 21 18
79 78 77 81 84 85 87 86 86 87 87 84 80 73 77 78 83 83 81 82 82 78 74 70 68 64 61 58 51 46 43 40 39 38 38 36 33 30 29 28 26 26 28 27
84 84 82 85 88 86 86 87 87 86 87 89 85 74 78 77 76 82 80 78 81 82 82 76 70 66 65 60 56 50 47 46 39 40 40 39 36 36 32 29 27 26 28 28
81 80 81 81 86 87 87 90 91 92 90 89 85 79 76 79 77 80 82 77 76 79 82 81 76 71 66 62 58 53 49 47 43 40 41 39 39 38 35 31 29 29 27 27
79 78 79 79 78 85 87 89 90 94 95 90 86 81 80 78 78 81 85 81 77 77 77 81 80 75 71 65 61 55 49 48 44 40 42 41 38 36 37 36 33 32 31 29
72 75 78 78 82 84 84 85 92 95 92 88 86 80 82 78 78 82 85 87 81 76 75 74 78 79 76 70 62 57 52 47 46 42 41 39 35 37 37 37 35 34 35 33
70 73 77 78 84 83 82 88 91 93 93 90 86 83 80 79 77 79 85 87 84 77 72 67 74 80 78 73 68 58 50 48 48 46 43 40 38 37 33 32 33 35 35 33
76 78 79 79 84 81 83 88 90 90 88 88 86 83 80 76 75 74 80 87 83 78 72 57 72 81 81 77 67 59 51 48 47 47 43 37 37 34 32 32 33 35 36 33
81 82 84 84 86 82 86 94 94 93 83 87 87 84 78 72 73 68 72 83 84 82 83 76 73 81 81 80 67 63 57 51 44 45 45 40 42 43 31 35 38 35 32 33
81 84 88 90 89 86 92 96 98 95 79 92 85 80 75 71 73 67 72 81 84 80 89 86 74 79 81 80 71 67 62 43 55 48 48 45 45 48 43 35 36 39 42 41
72 75 78 81 82 79 86 88 89 83 76 81 77 76 72 69 66 63 67 70 82 80 90 95 88 83 80 83 73 69 69 69 58 55 53 48 53 53 49 44 50 51 47 44
73 73 74 74 78 76 79 82 83 77 75 73 63 63 63 60 58 59 61 67 72 84 88 95 91 90 84 81 77 77 73 69 59 61 68 50 46 51 55 57 60 54 58 51
65 65 66 66 66 63 63 66 69 68 66 67 63 60 61 61 64 58 63 72 76 85 91 97 94 91 90 86 84 85 81 73 71 76 74 61 61 69 64 61 57 58 56 53
48 46 44 47 49 46 45 45 46 44 45 44 46 48 52 59 64 52 40 49 77 76 88 96 98 92 88 92 88 90 89 86 85 80 82 77 66 63 67 57 57 63 64 64
33 32 35 34 36 34 33 31 30 30 30 32 39 45 52 57 61 59 47 44 46 70 88 91 97 96 91 91 95 97 98 94 90 79 82 64 72 73 76 80 77 67 76 77
25 23 22 24 22 20 20 19 18 24 27 39 56 60 59 68 68 66 50 60 72 67 86 96 96 99 93 93 92 96 98 102 99 101 89 84 77 76 83 88 85 86 88 89

GFSCGP_250_spd_261.txt.gz
Wind_Speed
59 56 56 53 51 51 47 43 41 44 41 35 33 29 21 18 10 10 10 13 12 14 14 17 21 27 32 29 27 22 22 18 17 18 19 18 18 19 19 17 16 13 14 16
67 63 60 58 58 56 53 50 49 49 48 46 38 34 32 31 30 21 23 24 22 25 23 19 21 24 26 28 25 23 19 18 14 13 14 17 17 16 16 15 14 12 12 13
73 70 66 63 62 62 61 57 55 57 54 52 50 43 39 36 35 35 33 32 34 29 30 27 25 22 25 25 25 23 17 16 14 10 11 11 14 14 14 13 12 10 11 12
75 74 73 70 69 67 66 64 62 61 58 58 57 55 50 45 44 43 42 39 38 37 37 33 29 26 23 25 23 21 17 14 14 10 7 8 8 10 10 10 10 9 9 9
77 77 78 77 77 74 73 71 69 67 64 61 63 61 58 55 55 49 47 46 42 40 39 36 33 30 26 24 24 22 16 13 13 12 8 6 6 3 5 7 6 7 9 9
79 80 80 79 80 79 79 78 76 74 71 66 69 65 67 66 63 59 55 52 49 47 43 42 41 39 31 27 27 23 18 13 14 12 12 8 5 5 3 1 3 4 4 5
77 79 81 83 83 82 82 83 81 81 77 75 74 70 74 72 72 69 65 60 57 54 53 50 47 47 39 31 28 27 21 17 15 16 14 13 9 9 9 8 5 3 2 2
79 79 79 80 80 82 83 83 83 85 83 81 83 76 76 81 79 74 71 68 64 61 58 56 53 51 46 39 34 27 24 23 19 18 19 17 15 13 14 14 12 11 9 6
78 79 80 81 80 80 78 79 83 85 85 85 83 82 85 85 83 79 79 77 72 67 63 60 58 56 54 48 40 34 28 28 26 22 23 23 20 19 16 20 20 18 16 14
78 79 78 81 80 80 81 80 80 80 81 83 83 84 86 86 86 86 84 81 78 74 72 69 66 61 60 57 49 41 35 33 32 27 27 26 26 24 24 21 22 24 24 22
79 81 84 84 82 81 81 82 83 83 81 79 78 77 81 82 84 88 86 83 81 79 76 75 72 68 63 57 51 48 45 40 36 34 31 30 31 29 29 29 24 25 27 28
80 79 81 84 85 84 83 83 84 85 83 81 78 73 77 77 77 81 86 83 83 81 78 77 76 71 67 62 57 54 53 49 45 41 38 36 34 33 32 33 31 26 25 27
83 84 84 87 86 84 84 85 84 85 86 84 82 75 80 79 75 77 73 79 79 79 79 79 79 76 71 67 62 56 57 57 53 46 44 40 39 37 36 34 33 32 29 25
79 82 85 87 91 91 89 89 87 85 84 85 80 79 80 81 77 78 74 75 79 76 75 76 77 77 76 73 69 63 56 53 53 50 49 45 44 41 38 35 34 34 33 28
74 77 81 84 87 90 92 92 92 92 92 87 84 79 83 80 79 80 77 77 80 77 75 75 76 76 74 73 72 69 66 58 55 50 46 48 44 44 40 37 34 34 33 28
72 74 77 79 82 85 87 89 94 97 96 91 91 83 87 83 80 79 78 77 81 81 77 75 75 75 73 71 73 71 69 66 61 52 49 46 44 41 40 37 35 34 35 34
62 68 72 74 79 82 82 87 92 94 95 96 93 87 86 87 84 80 79 78 80 81 81 78 76 72 70 72 70 73 70 70 65 56 53 47 45 40 39 37 35 36 35 34
65 66 66 68 72 74 78 84 90 91 92 96 92 90 88 84 83 83 83 80 79 85 83 80 76 77 72 72 72 70 72 69 66 61 57 52 47 45 39 37 37 35 34 35
69 72 75 76 75 72 75 83 87 89 88 94 91 87 85 83 83 82 81 80 78 82 85 83 79 79 77 71 77 74 64 71 63 50 56 51 49 46 40 39 38 34 32 33
65 70 74 76 77 76 84 88 89 87 80 86 86 84 81 78 76 79 79 79 80 78 85 83 81 81 83 77 73 70 66 71 70 70 42 51 50 48 40 40 41 38 38 36
64 67 70 72 73 74 79 79 85 86 84 88 91 89 83 77 72 74 75 76 76 77 81 81 81 82 83 80 83 78 77 76 71 71 65 61 53 51 47 45 48 45 43 44
66 68 71 71 71 74 77 78 79 78 76 79 82 83 82 80 77 71 69 70 71 71 75 75 76 79 80 85 86 85 81 78 77 68 72 62 57 48 43 45 48 53 48 50
62 61 58 56 61 65 64 69 74 71 73 79 70 74 66 63 65 64 66 69 66 65 66 71 73 74 77 80 88 89 88 83 77 77 73 66 62 57 52 46 59 60 60 58
46 46 49 49 50 48 53 52 51 50 54 59 57 60 54 56 46 49 57 60 58 56 57 65 70 70 69 79 82 90 89 87 81 82 83 77 71 62 61 55 73 63 58 53
33 36 38 38 38 39 40 38 35 32 33 36 38 39 40 40 45 44 47 49 49 48 39 64 68 62 75 72 66 88 90 91 89 89 86 86 79 73 67 64 69 71 74 66
31 26 26 28 28 28 25 25 23 20 19 22 25 31 34 35 36 42 46 53 59 64 61 62 74 71 74 79 82 83 93 94 92 91 91 90 86 85 83 81 85 81 81 80

GFSCGP_250_spd_267.txt.gz
Wind_Speed
51 51 49 48 46 44 43 42 42 35 37 35 32 32 26 21 17 19 15 14 12 7 2 9 10 12 14 20 22 22 21 20 19 19 17 17 15 14 14 14 13 15 16 16
58 56 55 53 51 50 50 49 46 46 43 39 39 36 34 34 28 23 18 15 18 25 16 13 14 16 11 15 19 18 18 17 16 15 15 14 15 12 11 13 14 14 15 16
63 60 62 59 57 55 54 53 54 52 52 51 45 45 42 39 36 35 36 34 25 25 27 24 21 20 19 21 20 16 14 13 14 12 11 12 11 11 9 10 12 14 14 14
69 68 65 65 62 61 60 59 59 56 57 57 57 55 51 50 46 41 42 40 39 34 32 30 29 27 26 24 20 12 14 11 10 10 9 7 7 8 8 8 8 9 12 13
69 71 72 71 68 70 64 67 63 64 63 61 61 61 61 57 57 53 46 45 44 43 35 35 34 34 34 30 26 20 14 15 11 9 8 7 3 3 6 6 5 6 5 9
72 75 74 74 74 72 71 71 70 69 69 66 69 67 66 66 66 57 57 59 52 49 46 44 43 39 38 35 33 31 27 19 14 11 10 8 6 3 1 1 3 5 6 3
76 76 76 76 76 76 76 77 76 75 74 74 77 72 74 74 65 65 66 64 63 60 54 51 48 47 43 42 40 39 36 29 20 15 12 12 11 7 7 6 4 3 3 4
74 75 75 77 78 78 79 78 79 76 80 82 76 79 85 76 73 77 72 70 68 67 65 61 57 53 52 49 48 46 43 37 29 23 18 14 16 14 11 9 11 10 9 8
72 75 74 75 76 77 74 79 76 80 81 82 81 83 88 84 81 79 78 77 74 72 69 68 67 65 62 60 55 52 49 45 39 32 24 22 19 20 18 15 13 15 15 13
67 72 69 70 73 74 75 74 78 78 77 78 80 84 85 89 83 82 89 83 79 77 75 74 73 69 67 65 63 58 56 53 49 42 37 31 29 24 24 21 19 16 16 19
69 73 71 75 74 74 74 75 75 78 77 79 79 85 85 83 79 85 89 87 84 83 80 78 77 73 72 70 68 66 62 59 53 50 44 40 36 35 30 29 25 23 20 20
67 70 74 72 75 78 78 78 78 79 79 78 79 80 89 81 85 85 85 84 84 84 84 83 81 77 76 74 72 70 67 63 60 56 51 48 45 40 37 34 32 27 25 24
69 71 71 73 73 75 73 75 78 80 82 80 83 84 93 84 84 88 83 83 83 82 82 81 79 80 81 79 75 74 70 67 64 60 54 53 49 46 43 41 36 32 30 28
67 68 70 72 77 72 72 77 79 81 82 84 83 85 95 93 93 85 85 83 85 83 83 82 79 76 75 76 77 77 76 73 70 65 60 52 51 51 50 46 41 39 37 32
61 62 62 62 66 69 67 69 74 77 81 86 82 94 93 96 92 90 90 87 86 84 83 83 81 77 77 74 74 72 72 73 72 69 64 59 54 53 51 48 46 44 42 42
64 66 67 68 70 69 70 71 73 74 75 77 79 86 92 100 97 93 88 89 88 88 87 84 84 81 79 77 75 73 71 69 68 66 64 61 56 53 52 51 49 44 40 39
69 71 73 74 78 76 78 84 75 75 78 82 83 85 87 92 90 92 92 93 97 91 91 86 88 84 82 79 77 75 71 69 66 64 61 57 50 50 53 55 53 49 45 43
75 78 82 83 85 85 91 87 83 85 86 88 87 87 86 83 85 91 94 100 97 95 91 91 88 89 86 83 80 78 75 71 67 63 57 55 45 45 48 53 56 56 53 48
71 72 74 77 79 82 90 90 83 91 94 96 93 89 88 88 85 85 95 93 92 94 99 97 92 89 88 87 84 81 78 73 70 62 59 57 55 41 46 52 54 57 55 52
73 75 77 80 83 87 95 86 85 89 81 84 85 86 87 88 86 87 88 89 91 92 92 96 96 93 91 89 86 83 81 76 73 68 62 53 60 51 46 60 65 55 56 55
81 81 81 80 79 79 74 76 78 76 78 76 79 80 83 86 88 86 87 86 88 91 88 90 92 94 95 93 87 85 83 80 76 74 69 69 68 63 65 66 63 54 55 53
67 68 69 70 74 77 78 77 79 79 79 79 80 79 80 81 82 83 82 84 85 83 85 89 88 91 93 93 91 87 86 83 80 79 75 75 81 85 76 75 66 73 64 62
62 65 68 68 71 71 71 71 72 71 70 70 70 74 73 75 75 75 73 77 82 82 79 77 85 90 90 89 91 90 87 84 83 82 80 80 79 82 81 83 75 75 74 71
57 57 57 60 60 60 61 62 62 59 56 56 53 53 58 60 66 69 69 73 74 77 76 79 80 80 87 88 88 87 87 85 84 84 82 83 84 79 83 84 90 89 79 75
45 45 48 49 48 49 51 47 49 45 41 40 43 43 46 47 50 50 54 60 65 67 70 75 77 75 75 81 83 84 84 83 83 84 82 83 85 86 84 88 93 91 83 83
45 45 45 46 43 41 40 33 31 33 33 34 34 36 35 33 35 36 40 45 52 58 60 62 65 68 70 69 75 79 78 79 80 78 81 77 81 84 86 84 85 91 89 90

GFSCGP_250_spd_270.txt.gz
Wind_Speed
49 48 46 42 40 39 36 37 36 35 34 34 34 29 21 15 16 12 14 10 7 7 6 4 5 12 15 20 24 26 23 21 22 20 20 19 16 14 13 14 13 13 14 14
55 53 51 50 47 46 42 41 41 44 42 40 39 39 36 33 31 26 19 15 12 11 16 21 17 13 12 14 19 19 19 20 18 19 16 16 16 13 10 12 13 12 13 14
60 56 58 54 55 53 53 49 50 50 51 49 48 45 43 38 38 35 36 30 29 28 30 27 28 30 24 22 19 14 14 18 17 15 15 12 13 12 10 8 10 11 12 12
67 62 65 59 61 59 59 55 58 55 56 55 56 58 54 48 46 42 38 40 39 36 36 32 31 33 30 29 30 14 12 13 16 14 12 12 9 8 7 6 6 7 10 11
73 68 70 68 64 67 62 63 62 60 61 59 60 63 63 58 55 49 44 42 45 46 45 41 40 38 39 37 35 30 22 17 16 16 12 9 9 6 4 3 3 3 4 6
72 73 74 72 72 73 70 70 70 67 66 64 66 68 72 63 62 55 49 47 38 29 53 52 45 43 44 42 40 37 34 32 23 15 16 11 7 8 6 2 1 5 5 5
73 73 73 74 75 74 74 74 74 74 73 73 76 73 82 67 65 62 58 60 61 51 43 47 49 49 49 49 45 44 38 36 36 27 18 16 12 8 8 8 6 4 6 6
76 76 72 74 75 74 76 75 77 74 79 78 78 81 88 74 71 70 69 67 67 64 62 68 63 56 53 53 51 47 46 42 41 38 30 20 19 16 13 10 11 11 11 10
72 72 70 76 78 78 76 80 75 78 80 80 81 87 88 84 81 82 77 73 70 72 72 70 67 64 61 50 50 52 52 49 47 45 38 30 22 21 20 16 15 16 16 17
68 71 71 70 76 77 75 76 78 78 78 80 82 86 93 88 88 83 81 79 80 80 77 74 72 70 69 66 62 51 55 53 51 49 45 42 34 28 25 23 22 19 19 20
67 67 68 65 74 71 70 72 74 77 75 77 78 86 91 94 83 82 85 82 82 80 80 76 77 74 74 72 70 65 63 61 60 58 55 48 44 38 29 27 26 27 25 23
67 72 74 70 72 73 75 73 72 73 74 74 75 78 90 91 90 84 85 81 82 78 80 78 77 76 77 77 74 73 68 66 64 61 58 54 49 46 41 37 33 30 31 29
68 71 71 72 74 75 75 71 72 75 77 75 79 76 95 88 91 98 82 77 76 80 81 82 78 74 73 76 78 78 77 73 69 66 63 60 56 52 47 43 39 36 32 32
69 70 70 69 75 73 69 73 76 76 76 76 76 75 93 98 96 93 85 78 76 78 81 81 80 78 75 76 75 75 76 75 75 73 69 65 60 57 53 47 42 40 38 35
70 71 71 72 74 77 75 74 77 79 78 81 78 83 89 93 99 100 87 85 81 80 86 84 83 79 80 79 78 75 74 74 72 73 71 70 66 63 58 53 48 45 43 41
62 64 64 64 68 70 73 75 74 75 76 76 74 78 86 96 97 95 89 85 83 85 88 91 90 82 86 81 79 79 76 75 72 69 68 69 69 65 62 58 54 50 46 45
58 59 60 62 67 70 73 80 77 76 77 81 82 83 86 94 89 85 85 84 82 88 91 99 93 85 89 88 84 81 79 76 75 72 70 66 66 62 60 58 56 54 52 50
60 62 65 67 71 74 81 84 78 79 83 87 89 92 93 95 93 89 89 88 91 88 86 90 90 92 92 91 89 87 83 79 77 75 73 70 64 62 59 62 60 57 56 54
62 64 69 72 75 78 86 87 79 83 89 99 96 96 98 100 100 97 100 98 94 87 83 86 90 90 95 94 93 89 88 85 79 77 75 73 68 64 60 57 58 58 46 53
69 68 73 76 79 86 92 86 85 84 89 90 90 95 97 97 96 95 98 97 99 97 93 91 89 93 90 97 95 93 90 88 85 80 78 76 71 67 63 60 57 54 55 61
75 80 82 85 88 93 87 89 90 89 86 94 95 93 95 98 99 97 100 99 99 99 100 96 95 90 93 94 97 95 93 91 88 85 81 78 75 71 68 65 60 62 61 60
82 84 88 89 92 92 87 83 80 77 85 82 84 85 83 86 87 88 88 86 87 88 91 91 89 90 93 90 96 94 92 93 90 87 83 82 76 72 71 68 67 68 64 62
78 74 70 71 75 75 77 78 74 76 77 76 76 78 78 75 77 78 80 82 83 83 83 83 84 84 89 90 91 93 90 91 92 89 86 82 81 77 76 72 67 67 70 66
57 60 64 66 68 68 71 71 65 67 66 67 67 67 64 63 63 63 66 70 73 76 79 79 75 81 85 88 89 88 90 87 88 91 88 84 82 82 79 76 73 74 80 75
52 51 52 56 57 61 62 69 59 64 60 58 58 53 48 45 45 46 45 48 52 57 63 66 70 71 77 80 83 81 85 85 84 86 89 87 84 82 83 77 79 81 81 84
41 40 42 49 48 45 48 51 54 49 48 47 47 37 32 32 35 35 35 37 40 44 47 51 57 61 63 70 73 74 76 80 81 80 81 86 87 81 82 88 85 84 87 90

GFSCGP_250_spd_273.txt.gz
Wind_Speed
46 45 42 40 39 36 36 32 29 30 33 31 27 30 16 18 13 8 11 14 10 9 9 4 5 12 16 21 28 26 24 26 26 22 20 19 19 18 9 8 9 11 14 14
53 48 46 48 46 42 41 41 36 37 37 38 38 34 31 30 23 24 20 18 14 8 8 13 20 27 23 19 18 20 20 22 25 25 20 17 16 17 16 10 6 8 12 13
57 53 53 53 51 51 48 45 45 46 45 42 43 43 40 39 36 33 32 34 30 24 28 31 31 33 32 27 22 17 13 17 21 25 23 16 14 13 15 14 9 4 7 10
63 59 60 59 57 54 53 54 55 51 51 50 50 50 50 48 45 40 32 34 34 33 32 35 40 43 38 34 30 23 18 15 15 22 21 20 13 10 10 11 12 8 4 4
68 63 65 68 60 62 59 58 59 58 58 59 59 59 57 55 54 48 36 31 34 32 33 37 24 29 38 41 37 31 26 22 22 16 17 19 17 8 7 7 8 10 5 2
71 69 71 70 67 70 66 64 67 63 63 65 66 66 66 58 59 56 51 41 38 38 30 22 31 32 26 29 30 32 28 27 28 30 21 17 18 14 7 5 6 6 6 2
75 74 73 70 71 72 73 72 73 71 72 71 72 71 73 63 60 61 60 56 51 42 36 28 22 29 24 24 27 25 32 37 35 33 33 25 18 18 15 10 9 8 7 6
81 75 72 75 74 73 73 75 74 75 74 76 80 79 79 75 68 67 67 64 62 59 52 46 47 29 19 11 23 20 35 38 39 38 35 36 27 20 19 17 13 12 12 12
77 73 74 78 79 76 77 75 76 77 76 77 80 84 83 83 79 73 74 70 67 65 63 59 57 57 60 64 48 50 34 39 40 38 38 41 34 25 21 20 20 19 17 16
74 70 70 74 79 78 79 77 78 77 80 80 84 85 87 87 84 75 70 71 73 74 72 70 64 64 67 70 72 69 63 62 52 53 47 42 42 38 27 26 24 23 22 22
68 68 69 69 79 76 75 76 76 75 74 76 83 89 88 88 88 83 74 70 72 72 73 73 69 70 73 77 77 74 69 61 58 54 52 48 47 40 39 35 31 29 28 25
66 71 69 67 69 73 74 72 69 70 72 72 75 84 86 93 93 83 74 68 67 68 69 70 71 70 71 73 77 77 75 73 68 65 58 56 55 46 50 49 42 35 34 30
70 70 69 70 73 68 68 68 68 69 72 73 76 82 90 91 93 92 79 69 63 63 67 69 71 74 74 75 76 76 78 76 73 69 67 62 66 66 61 57 50 43 39 40
65 66 67 70 73 72 69 68 71 74 73 74 75 82 93 95 96 91 85 76 70 66 65 70 74 77 77 80 79 78 75 74 71 70 69 61 63 67 65 63 56 50 47 42
68 68 66 67 70 71 71 69 69 71 73 74 75 83 95 96 93 91 88 85 80 75 72 73 77 83 84 80 81 79 79 77 75 72 68 69 58 66 63 61 58 57 50 47
61 63 63 66 70 73 73 75 75 75 79 79 81 86 87 92 93 93 91 92 89 86 82 81 81 84 88 89 87 84 82 79 74 75 73 69 64 61 72 68 64 59 53 48
51 52 54 57 61 65 68 73 72 72 74 76 79 80 81 87 89 91 95 97 92 93 88 85 84 85 88 90 88 88 85 85 80 76 75 74 73 70 62 68 68 60 56 47
48 50 52 55 60 64 68 66 66 69 73 74 77 82 85 87 91 96 101 98 95 96 96 91 87 87 86 88 87 90 88 88 88 82 79 78 77 76 75 68 64 56 49 44
49 51 54 58 62 68 70 67 69 72 75 78 80 83 87 91 94 96 100 103 102 101 100 98 92 88 88 87 90 87 89 92 91 89 84 82 80 79 78 76 67 62 62 65
57 60 64 68 72 77 76 74 77 81 83 81 85 90 94 93 94 99 105 107 106 107 104 103 103 98 94 94 89 85 92 92 89 93 89 85 83 81 79 78 74 67 63 60
61 65 69 70 77 83 81 82 84 88 91 94 100 99 97 101 102 100 104 106 107 107 105 103 100 99 100 94 95 96 97 95 88 88 92 89 87 84 82 79 78 73 67 63
68 74 78 80 88 90 94 94 94 94 96 100 99 95 96 93 92 95 95 97 100 101 104 103 99 94 94 94 93 95 98 98 95 86 88 90 89 87 85 83 79 76 73 70
75 79 81 89 96 95 89 81 77 78 83 84 83 83 83 82 82 81 83 83 84 85 88 91 91 88 88 90 92 93 95 96 98 95 86 88 90 89 86 85 83 69 69 74
73 71 70 68 66 69 74 74 68 71 75 73 74 73 71 71 68 68 64 63 63 66 70 74 79 82 80 79 80 84 91 92 93 95 91 87 88 89 89 87 86 80 69 72
51 51 53 53 55 59 61 68 58 64 66 60 62 57 57 55 54 50 48 46 45 48 51 55 60 66 68 66 68 75 78 83 86 91 91 87 85 86 89 89 86 86 80 78
41 42 43 44 47 49 53 52 57 61 54 51 51 48 44 42 38 33 33 34 34 36 39 40 43 45 47 51 56 61 68 75 75 79 83 84 81 83 87 90 89 88 89 80